星链-31931 (STARLINK-31931 )

导读

STARLINK-31931是美国太空探索技术公司星链互联网卫星星座中的一颗卫星,于北京时间2024年5月24日发射入轨。星链星座旨在为全球用户提供高速低延迟宽带互联网服务,该卫星的发射延续了星链星座不断组网扩张的节奏,进一步完善了星链星座的全球覆盖与服务能力。

Basic Information
目录编号:
59864
目录名称:
STARLINK-31931
国际标识:
2024-098G
轨道中心:
EARTH
卫星名称:
星链-31931
卫星全名:
星链-31931 (STARLINK-31931 )
卫星状态:
在轨 (已飞行840 天)
发射日期:
2024-05-24 UTC
国别 :
美国 (US)
星等 :
--
This satellite is enrolled in the Space Conjunction Data Service (SCDS) and the current flight risk assessment level is: No High Risk
Orbit Information
数据来源 国际轨道数据 AOE轨道数据
星历时间 2026-09-11T12:47:09+0800
15小时前
查看轨道信息
2026-09-10T07:00:00+0800
1天前
查看轨道信息
半长轴 6861.197km 6861.211km
偏心率 0.0001065 0.0000852
轨道倾角 43.002° 43.002°
近地点辐角 269.599° 238.793°
升交点赤经 310.664° 317.675°
平近点角 90.474° 128.240°
近地点 482.329km 482.489km
远地点 483.791km 483.659km
周期 94.267分钟 94.267分钟
每日圈数 15.275764 15.275719
Detailed Information
固有亮度:
5
最大亮度:
1.5
卫星平台:
Starlink v2.0 mini
覆盖范围:
全球
运营商:
太空探索技术公司
运营商所在国:
美国
制造商(研发单位):
太空探索技术公司
制造商所在国:
美国
使用方式:
暂无
Satellite Introduction
星链(Starlink)计划是由太空探索技术公司(SpaceX)提出的一个巨型低轨卫星互联网星座项目,计划在2019年至2024年间在太空搭建由约1.2万颗卫星组成的“星链”网络,其中1584颗将部署在地球上空550千米处的近地轨道,并从2020年开始工作。该卫星仍在工作。
2D Orbit Map
3D Orbit Map
Orbit Altitude Analysis Chart
Orbit Inclination Analysis Chart
Orbit Comprehensive Analysis Chart
View Comprehensive Chart
Conjunction Data List
Event ID Objects TCA Miss Dist (km) Collision Risk Probability Collision Risk Index (CRI) Action
CDM_260914-051705-986406-742721
2026-09-14T
05:17:58+0000
0.135 km
中距离
7.468369E-4 高风险 0.92
CDM_260914-050805-619305-986421
HAWK-7B (56193)
2026-09-14T
05:08:28+0000
0.388 km
远距离
3.32862E-4 高风险 0.85
CDM_260914-064305-986406-726321
OBJECT R (67263)
2026-09-14T
06:43:34+0000
2.048 km
极远距离
1.845416E-6 低风险 0.4
Miss Distance Evolution Trend with All Objects
Collision Probability Evolution Trend with All Objects